Weather History for Jasper, TX

Change the Weather History Date:

Wednesday, August 7, 2013

  Actual Average (KLFK) Record (KLFK)
Temperature  
Mean Temperature 87 °F 83 °F  
Max Temperature 98 °F 95 °F 105 °F (1962)
Min Temperature 76 °F 72 °F 62 °F (1920)
Degree Days  
Heating Degree Days 0 0  
Month to date heating degree days 0  
Since 1 June heating degree days 0  
Since 1 July heating degree days 0  
Cooling Degree Days 22 18  
Month to date cooling degree days 126  
Year to date cooling degree days 1597  
Since 1 June cooling degree days 1128  
Growing Degree Days 37 (Base 50)    
Moisture  
Dew Point 73 °F    
Average Humidity 69    
Maximum Humidity 95    
Minimum Humidity 34    
Precipitation  
Precipitation 0.00 in 0.11 in 1.08 in (1970)
Month to date precipitation 0.69  
Year to date precipitation 27.94  
Snow  
Snow 0.00 in - - ()
Month to date snowfall  
Since 1 June snowfall  
Since 1 July snowfall  
Snow Depth -    
Sea Level Pressure  
Sea Level Pressure 29.94 in    
Wind  
Wind Speed 5 mph (SSW)    
Max Wind Speed 13 mph    
Max Gust Speed 18 mph    
Visibility 7 miles    
Events      
T = Trace of Precipitation, MM = Missing Value Source: NWS Daily Summary

Daily Weather History Graph

Daily Weather History Graph

Search for Another Location

Airport:

Trip Planner

Search our weather history database for the weather conditions in past years. The results will help you decide how hot, cold, wet, or windy it might be!

Date:

Astronomy

Aug. 07, 2013 Rise Set
Actual Time 6:37 AM CDT 8:05 PM CDT
Civil Twilight 6:11 AM CDT 8:31 PM CDT
Nautical Twilight 5:40 AM CDT 9:02 PM CDT
Astronomical Twilight 5:08 AM CDT 9:34 PM CDT
Moon 7:19 AM CDT (8/7) 8:23 PM CDT (8/7)
Length of Visible Light 14h 19m
Length of Day
13h 28m
New Moon, 1% of the Moon is Illuminated
Aug 7
New Moon
Aug 14
First Quarter
Aug 20
Full
Aug 28
Last Quarter
Sep 5
New

Hourly Weather History & Observations

Time (CDT) Temp. Heat Index Dew Point Humidity Pressure Visibility Wind Dir Wind Speed Gust Speed Precip Events Conditions
12:15 AM 81.5 °F 88.7 °F 76.5 °F 85% 29.97 in 10.0 mi South 3.5 mph - N/A   Clear
12:35 AM 80.8 °F 87.2 °F 76.5 °F 87% 29.98 in 10.0 mi SSW 4.6 mph - N/A   Clear
12:55 AM 80.2 °F 86.0 °F 76.5 °F 88% 29.97 in 7.0 mi South 3.5 mph - N/A   Clear
1:15 AM 79.5 °F - 76.3 °F 90% 29.97 in 7.0 mi South 4.6 mph - N/A   Clear
1:35 AM 79.2 °F - 76.1 °F 90% 29.97 in 7.0 mi Calm Calm - N/A   Clear
1:55 AM 78.8 °F - 76.1 °F 91% 29.97 in 7.0 mi SSW 4.6 mph - N/A   Clear
2:15 AM 78.4 °F - 76.1 °F 92% 29.97 in 7.0 mi SSW 3.5 mph - N/A   Clear
2:35 AM 77.9 °F - 75.7 °F 93% 29.97 in 7.0 mi SSW 3.5 mph - N/A   Clear
2:55 AM 77.7 °F - 75.6 °F 93% 29.97 in 5.0 mi Calm Calm - N/A   Clear
3:15 AM 77.2 °F - 75.2 °F 94% 29.97 in 5.0 mi SSW 3.5 mph - N/A   Scattered Clouds
3:35 AM 77.0 °F - 75.2 °F 94% 29.96 in 5.0 mi SSW 3.5 mph - N/A   Mostly Cloudy
3:55 AM 77.0 °F - 75.2 °F 94% 29.96 in 5.0 mi SSW 3.5 mph - N/A   Scattered Clouds
4:15 AM 76.8 °F - 75.0 °F 94% 29.95 in 5.0 mi SSW 4.6 mph - N/A   Scattered Clouds
4:35 AM 76.6 °F - 74.8 °F 94% 29.94 in 5.0 mi SSW 4.6 mph - N/A   Scattered Clouds
4:55 AM 76.5 °F - 74.7 °F 94% 29.94 in 5.0 mi South 3.5 mph - N/A   Scattered Clouds
5:15 AM 76.5 °F - 74.7 °F 94% 29.94 in 5.0 mi South 5.8 mph - N/A   Mostly Cloudy
5:35 AM 76.6 °F - 75.2 °F 95% 29.94 in 5.0 mi SSW 4.6 mph - N/A   Overcast
5:55 AM 76.6 °F - 75.2 °F 95% 29.94 in 5.0 mi South 4.6 mph - N/A   Overcast
6:15 AM 76.6 °F - 75.2 °F 95% 29.94 in 5.0 mi SSW 4.6 mph - N/A   Overcast
6:35 AM 76.6 °F - 75.0 °F 95% 29.94 in 5.0 mi SSW 5.8 mph - N/A   Overcast
6:55 AM 76.6 °F - 74.8 °F 94% 29.95 in 4.0 mi SW 3.5 mph - N/A   Overcast
7:15 AM 76.8 °F - 75.0 °F 94% 29.96 in 4.0 mi SSW 4.6 mph - N/A   Overcast
7:35 AM 77.0 °F - 75.2 °F 94% 29.96 in 5.0 mi SSW 4.6 mph - N/A   Overcast
7:55 AM 77.4 °F - 75.2 °F 93% 29.97 in 5.0 mi SSW 5.8 mph - N/A   Overcast
8:15 AM 78.3 °F - 75.6 °F 91% 29.97 in 7.0 mi SW 6.9 mph - N/A   Overcast
8:35 AM 79.5 °F - 76.3 °F 90% 29.97 in 7.0 mi SW 9.2 mph 17.3 mph N/A   Overcast
8:55 AM 80.6 °F 86.8 °F 76.5 °F 87% 29.97 in 7.0 mi SW 9.2 mph - N/A   Mostly Cloudy
9:15 AM 81.9 °F 89.5 °F 76.5 °F 84% 29.98 in 7.0 mi SW 8.1 mph 18.4 mph N/A   Overcast
9:35 AM 82.8 °F 91.0 °F 76.5 °F 81% 29.98 in 7.0 mi SW 12.7 mph 18.4 mph N/A   Mostly Cloudy
9:55 AM 84.2 °F 93.4 °F 76.3 °F 77% 29.99 in 7.0 mi SW 9.2 mph 17.3 mph N/A   Mostly Cloudy
10:15 AM 85.1 °F 94.5 °F 75.9 °F 74% 30.00 in 7.0 mi West 10.4 mph - N/A   Mostly Cloudy
10:35 AM 86.4 °F 95.5 °F 75.2 °F 69% 30.00 in 7.0 mi SW 9.2 mph 17.3 mph N/A   Mostly Cloudy
10:55 AM 86.9 °F 95.9 °F 74.7 °F 67% 30.01 in 7.0 mi WSW 9.2 mph - N/A   Mostly Cloudy
11:15 AM 87.8 °F 96.6 °F 74.1 °F 64% 30.01 in 7.0 mi SSW 10.4 mph - N/A   Mostly Cloudy
11:35 AM 89.1 °F 98.0 °F 74.1 °F 61% 30.00 in 7.0 mi SW 9.2 mph - N/A   Mostly Cloudy
11:55 AM 89.6 °F 98.2 °F 73.6 °F 59% 30.00 in 7.0 mi SW 3.5 mph - N/A   Scattered Clouds
12:15 PM 90.1 °F 98.3 °F 73.2 °F 57% 29.99 in 7.0 mi South 6.9 mph - N/A   Scattered Clouds
12:35 PM 90.9 °F 98.9 °F 72.9 °F 55% 29.99 in 7.0 mi SW 4.6 mph - N/A   Scattered Clouds
12:55 PM 91.8 °F 99.1 °F 72.1 °F 52% 29.98 in 7.0 mi WSW 8.1 mph 16.1 mph N/A   Clear
1:15 PM 92.8 °F 99.7 °F 71.1 °F 49% 29.97 in 7.0 mi SW 6.9 mph - N/A   Clear
1:35 PM 94.1 °F 100.6 °F 70.3 °F 46% 29.96 in 7.0 mi SW 9.2 mph - N/A   Clear
1:55 PM 94.6 °F 100.5 °F 69.6 °F 44% 29.95 in 7.0 mi West 5.8 mph - N/A   Clear
2:15 PM 95.7 °F 100.3 °F 68.0 °F 40% 29.94 in 7.0 mi West 9.2 mph 16.1 mph N/A   Clear
2:35 PM 96.6 °F 102.1 °F 68.4 °F 40% 29.93 in 7.0 mi Calm Calm - N/A   Clear
2:55 PM 97.0 °F 103.5 °F 70.0 °F 41% 29.93 in 7.0 mi WSW 8.1 mph - N/A   Clear
3:15 PM 97.0 °F 103.5 °F 69.4 °F 41% 29.92 in 7.0 mi SSE 4.6 mph - N/A   Clear
3:35 PM 97.5 °F 103.3 °F 68.9 °F 39% 29.92 in 7.0 mi SSW 5.8 mph - N/A   Clear
3:55 PM 97.9 °F 103.3 °F 68.2 °F 38% 29.90 in 7.0 mi WSW 6.9 mph - N/A   Clear
4:15 PM 97.9 °F 102.1 °F 66.6 °F 36% 29.90 in 7.0 mi South 4.6 mph - N/A   Clear
4:35 PM 98.2 °F 102.8 °F 67.3 °F 36% 29.89 in 7.0 mi South 8.1 mph - N/A   Clear
4:55 PM 98.2 °F 102.1 °F 66.6 °F 35% 29.88 in 7.0 mi South 6.9 mph - N/A   Clear
5:15 PM 98.4 °F 101.9 °F 65.7 °F 34% 29.88 in 7.0 mi South 9.2 mph - N/A   Clear
5:35 PM 98.2 °F 102.1 °F 66.2 °F 35% 29.88 in 7.0 mi SSW 6.9 mph - N/A   Clear
5:55 PM 98.1 °F 101.8 °F 66.0 °F 35% 29.87 in 7.0 mi South 8.1 mph - N/A   Clear
6:15 PM 97.5 °F 102.6 °F 67.8 °F 38% 29.88 in 7.0 mi SE 4.6 mph - N/A   Clear
6:35 PM 96.8 °F 102.5 °F 68.7 °F 40% 29.87 in 7.0 mi South 5.8 mph - N/A   Clear
6:55 PM 95.5 °F 101.8 °F 70.0 °F 43% 29.87 in 7.0 mi South 8.1 mph - N/A   Clear
7:15 PM 94.1 °F 101.2 °F 71.1 °F 47% 29.88 in 7.0 mi South 9.2 mph - N/A   Clear
7:35 PM 92.7 °F 99.4 °F 71.1 °F 49% 29.88 in 7.0 mi South 6.9 mph - N/A   Clear
7:55 PM 91.2 °F 97.5 °F 70.9 °F 51% 29.88 in 7.0 mi South 4.6 mph - N/A   Clear
8:15 PM 90.1 °F 95.8 °F 70.2 °F 52% 29.88 in 7.0 mi South 4.6 mph - N/A   Clear
8:35 PM 89.1 °F 95.0 °F 70.9 °F 55% 29.89 in 7.0 mi South 5.8 mph - N/A   Clear
8:55 PM 88.3 °F 96.4 °F 73.6 °F 61% 29.90 in 7.0 mi South 8.1 mph - N/A   Clear
9:15 PM 87.6 °F 98.2 °F 75.7 °F 68% 29.91 in 7.0 mi South 9.2 mph - N/A   Clear
9:35 PM 86.9 °F 97.3 °F 76.1 °F 70% 29.93 in 7.0 mi South 8.1 mph - N/A   Clear
9:55 PM 85.8 °F 95.5 °F 75.7 °F 72% 29.93 in 7.0 mi South 8.1 mph - N/A   Clear
10:15 PM 85.1 °F 94.1 °F 75.6 °F 73% 29.94 in 7.0 mi South 10.4 mph - N/A   Clear
10:35 PM 84.2 °F 93.0 °F 75.7 °F 76% 29.93 in 7.0 mi South 9.2 mph - N/A   Clear
10:55 PM 83.5 °F 91.9 °F 76.1 °F 78% 29.94 in 7.0 mi South 8.1 mph - N/A   Clear
11:15 PM 82.9 °F 91.2 °F 76.1 °F 80% 29.94 in 7.0 mi South 5.8 mph - N/A   Clear
11:35 PM 82.2 °F 89.9 °F 76.1 °F 82% 29.94 in 7.0 mi SSW 5.8 mph - N/A   Clear
11:55 PM 81.5 °F 88.5 °F 76.1 °F 84% 29.95 in 7.0 mi SSW 5.8 mph - N/A   Clear